Weather in Pleven

Bulgaria     43˚24′28″N   24˚37′10″E
temp.,
°C
wind,
m/s
gust,
m/s
humid.,
%
clouds,
%
prec.,
mm/h
press.,
hPa
HPBL,
m
27 november, fri
fri2723:00+5˚e00580 0.0 102522
02:00+4˚n00610 0.0 102422
05:00+3˚sw11650 0.0 102322
08:00+3˚sw11650 0.0 102322
11:00+8˚wnw22440 0.0 1022238
14:00+11˚w11350 0.0 1020330
17:00+8˚w11490 0.0 102022
20:00+7˚sw12550 0.0 102122
28 november, sat
sat2823:00+6˚sw125646 0.0 102122
02:00+5˚sw225965 0.0 102022
05:00+4˚wsw12631 0.0 101922
08:00+4˚wsw116432 0.0 102022
11:00+9˚wsw114664 0.0 1019186
14:00+12˚n114174 0.0 1017335
17:00+8˚ene115197 0.0 101722
20:00+7˚ese115497 0.0 101722
29 november, sun
sun2923:00+7˚se1156100 0.0 101822
02:00+6˚nnw2260100 0.0 101823
05:00+4˚w2375100 0.0 101871
08:00+3˚wsw2379100 0.0 101871
11:00+7˚w2358100 0.0 1019365
14:00+9˚nw235397 0.0 1017586
17:00+6˚n116639 0.0 101722
20:00+6˚nne116769 0.0 101822
30 november, mon
mon3023:00+5˚nw1170100 0.0 101922
02:00+5˚wnw3475100 0.3 1019193
05:00+4˚nw2488100 1.5 1019248
08:00+3˚nw3596100 5.4 1020311
11:00+2˚wnw5795100 2.8 1022406
14:00+2˚wnw4882100 3.5 1022565
17:00+4˚wnw3762100 0.0 1023691
20:00+2˚wnw4106884 0.0 1025362
1 december, tue
tue123:00w377618 0.0 1026211
02:00−1˚wsw368020 0.0 1025167
05:00−1˚wsw358268 0.0 1026157
08:00−1˚wsw247878 0.0 1026196
11:00+2˚w226495 0.0 1025422
14:00+4˚n116178 0.0 1023644
17:00+2˚ese22720 0.0 102322
20:00ese22800 0.0 102425